ROMMA est une association bénévole à but non lucratif. Votre soutien est indispensable : ADHERER à ROMMA ou FAIRE un DON

Crêts du Salève - (74, Haute-Savoie)

Salève (1270 m)   Longitude: 6° 10' 28'' E   Latitude: 46° 7' 42'' N Station romma n°73
 

Détail journalier du     <<     >>

Température Precipitation Humidité Vent Dir Rafale Dir. rafale Ensol.
Heure (°C) (mm) (%) (km/h) (km/h) (min)
01:00 16.205839S56S0
02:00 13.807330S45S0
03:00 13.007915S37S0
04:00 13.107610SO19SSO0
05:00 13.907116S39S0
06:00 12.607916S35S0
07:00 12.707611SSO32S0
08:00 12.207910S32S0
09:00 13.806920SSE35SSE50
10:00 14.206524SSE42SSE60
11:00 14.905924SSE45S60
12:00 14.106922SSE45S60
13:00 14.806316S34S60
14:00 14.706416S39SSO60
15:00 16.206214S39SSE60
16:00 16.806312SSE29S60
17:00 16.905915S31S60
18:00 16.006319SSO39S40
19:00 15.706734S55S0
20:00 15.806737S53S0
21:00 15.707036S50S0
22:00 15.007232S52S0
23:00 15.306828S40S0
minuit 14.906823S40S0

Graphique du 14-10-2019

 

Serveur OMMA